カタログに戻る

CZ-2C R/B

運用中LEO
NORAD 42948·ROCKET BODY·🇨🇳 China

打ち上げ Sep 29, 2017 から Xichang Satellite Launch Center

Loading…

次のパス (今後24時間)

TLE

最新Source: Space-Track

元期: Sep 14, 2026, 10:55 UTC

1 42948U 17058D   26257.45509317  .00000886  00000-0  97861-4 0  9991
2 42948  34.9254 178.3091 0059333 312.2302  47.3375 14.86544060485522

AllMySatでCZ-2C R/Bをリアルタイム追跡

Download on the App Store